Satellite: COMPASS
Catalog number: 32787
Epoch time:      12138.25428180
Element set:     304
Inclination:      097.8029 deg
RA of node:       200.2727 deg
Eccentricity:    0.0015553
Arg of perigee:   157.9349 deg
Mean anomaly:     202.2573 deg
Mean motion:   14.83884612 rev/day
Decay rate:      2.077e-05 rev/day^2
Epoch rev:           21922
Checksum:              297

Satellite: AAUSAT2
Catalog number: 32788
Epoch time:      12137.82603848
Element set:     294
Inclination:      097.8052 deg
RA of node:       200.2177 deg
Eccentricity:    0.0014840
Arg of perigee:   157.8724 deg
Mean anomaly:     202.3115 deg
Mean motion:   14.84197189 rev/day
Decay rate:      2.486e-05 rev/day^2
Epoch rev:           21918
Checksum:              314

Satellite: DO-64
Catalog number: 32789
Epoch time:      12137.70221503
Element set:     310
Inclination:      097.8146 deg
RA of node:       202.0003 deg
Eccentricity:    0.0015162
Arg of perigee:   156.7658 deg
Mean anomaly:     203.4211 deg
Mean motion:   14.85599149 rev/day
Decay rate:      3.714e-05 rev/day^2
Epoch rev:           21920
Checksum:              278

Satellite: CO-66
Catalog number: 32791
Epoch time:      12138.77155833
Element set:     295
Inclination:      097.8022 deg
RA of node:       200.5435 deg
Eccentricity:    0.0016162
Arg of perigee:   155.9419 deg
Mean anomaly:     204.2500 deg
Mean motion:   14.83323454 rev/day
Decay rate:      1.389e-05 rev/day^2
Epoch rev:           21923
Checksum:              298

Satellite: RS-30
Catalog number: 32953
Epoch time:      12138.86537391
Element set:     785
Inclination:      082.4995 deg
RA of node:       313.9969 deg
Eccentricity:    0.0019188
Arg of perigee:   017.0832 deg
Mean anomaly:     343.0890 deg
Mean motion:   12.43023359 rev/day
Decay rate:        1.0e-07 rev/day^2
Epoch rev:           18079
Checksum:              323

Satellite: TACSAT-3
Catalog number: 35001
Epoch time:      12121.72616188
Element set:    0001
Inclination:      040.4259 deg
RA of node:       351.8840 deg
Eccentricity:    0.0007146
Arg of perigee:   275.2650 deg
Mean anomaly:     085.0693 deg
Mean motion:   16.45157000 rev/day
Decay rate:  1.5204951e-01 rev/day^2
Epoch rev:           16699
Checksum:              280

Satellite: PHARMSAT
Catalog number: 35002
Epoch time:      12138.75789541
Element set:     899
Inclination:      040.4601 deg
RA of node:       261.4225 deg
Eccentricity:    0.0005974
Arg of perigee:   357.4042 deg
Mean anomaly:     002.6759 deg
Mean motion:   15.78476963 rev/day
Decay rate:    1.04880e-03 rev/day^2
Epoch rev:           16950
Checksum:              317

Satellite: METEOR-M
Catalog number: 35865
Epoch time:      12138.67900493
Element set:     416
Inclination:      098.6565 deg
RA of node:       193.5723 deg
Eccentricity:    0.0003022
Arg of perigee:   126.1821 deg
Mean anomaly:     233.9635 deg
Mean motion:   14.21861935 rev/day
Decay rate:       -8.0e-08 rev/day^2
Epoch rev:           13826
Checksum:              300

Satellite: RS-38
Catalog number: 35869
Epoch time:      12138.77500001
Element set:     425
Inclination:      098.6522 deg
RA of node:       193.6674 deg
Eccentricity:    0.0005097
Arg of perigee:   131.8122 deg
Mean anomaly:     228.3490 deg
Mean motion:   14.22069166 rev/day
Decay rate:        1.5e-07 rev/day^2
Epoch rev:           13829
Checksum:              300

Satellite: JUGNU
Catalog number: 37839
Epoch time:      12138.50179443
Element set:     150
Inclination:      019.9639 deg
RA of node:       184.1285 deg
Eccentricity:    0.0018699
Arg of perigee:   246.4524 deg
Mean anomaly:     113.3882 deg
Mean motion:   14.12052450 rev/day
Decay rate:       6.20e-06 rev/day^2
Epoch rev:            3090
Checksum:              289

Satellite: SRMSAT
Catalog number: 37841
Epoch time:      12137.52393186
Element set:    0151
Inclination:      019.9742 deg
RA of node:       194.3167 deg
Eccentricity:    0.0012179
Arg of perigee:   203.8569 deg
Mean anomaly:     156.1295 deg
Mean motion:   14.10137841 rev/day
Decay rate:       2.64e-06 rev/day^2
Epoch rev:           03072
Checksum:              289

Satellite: RAX-2
Catalog number: 37853
Epoch time:      12137.88481939
Element set:     178
Inclination:      101.7150 deg
RA of node:       163.8223 deg
Eccentricity:    0.0248083
Arg of perigee:   080.1559 deg
Mean anomaly:     282.7554 deg
Mean motion:   14.79705416 rev/day
Decay rate:      6.762e-05 rev/day^2
Epoch rev:            2976
Checksum:              332

Satellite: AUBIESAT
Catalog number: 37854
Epoch time:      12138.59098777
Element set:     180
Inclination:      101.7177 deg
RA of node:       165.0654 deg
Eccentricity:    0.0249372
Arg of perigee:   077.7647 deg
Mean anomaly:     285.1356 deg
Mean motion:   14.80074655 rev/day
Decay rate:      6.958e-05 rev/day^2
Epoch rev:            2986
Checksum:              350

Satellite: HRBE
Catalog number: 37855
Epoch time:      12138.53420446
Element set:     178
Inclination:      101.7191 deg
RA of node:       164.9431 deg
Eccentricity:    0.0249454
Arg of perigee:   077.7645 deg
Mean anomaly:     285.1367 deg
Mean motion:   14.79944021 rev/day
Decay rate:      6.843e-05 rev/day^2
Epoch rev:            2985
Checksum:              325

Satellite: RS-39
Catalog number: 38051
Epoch time:      12138.71690972
Element set:     341
Inclination:      051.6301 deg
RA of node:       304.9892 deg
Eccentricity:    0.0011262
Arg of perigee:   288.9056 deg
Mean anomaly:     258.5437 deg
Mean motion:   15.23770008 rev/day
Decay rate:      8.905e-05 rev/day^2
Epoch rev:            1732
Checksum:              305

Satellite: E-STAR
Catalog number: 38079
Epoch time:      12138.81720291
Element set:     232
Inclination:      069.4922 deg
RA of node:       025.0027 deg
Eccentricity:    0.0751799
Arg of perigee:   286.0969 deg
Mean anomaly:     065.8674 deg
Mean motion:   14.13365848 rev/day
Decay rate:     2.3095e-04 rev/day^2
Epoch rev:            1329
Checksum:              326

Satellite: GOLIAT
Catalog number: 38085
Epoch time:      12138.71750321
Element set:     217
Inclination:      069.4961 deg
RA of node:       025.3976 deg
Eccentricity:    0.0755039
Arg of perigee:   286.3573 deg
Mean anomaly:     065.5871 deg
Mean motion:   14.12432531 rev/day
Decay rate:     2.3106e-04 rev/day^2
Epoch rev:            1327
Checksum:              295

/EX




More information about the Keps mailing list